FW4608 Weather Reports


Display with metric or nautical units.
time (UTC)temp
F
wind
direction
speed
MPH
gust
MPH
rain 1hr
in
rain 24hr
in
rain mn
in
humidity
%
barometer
mb
20260831053555 76 309 0.0 0.0 0.00 0.28 0.00 93 1017.0
20260831053056 76 309 0.0 0.0 0.00 0.28 0.00 93 1017.0
20260831052553 76 309 0.0 0.0 0.00 0.28 0.00 94 1017.0
20260831052053 76 309 0.0 0.0 0.00 0.28 0.00 93 1017.1
20260831051559 76 309 0.0 0.0 0.00 0.28 0.00 93 1017.1
20260831051052 76 309 0.0 0.0 0.00 0.28 0.00 93 1017.1
20260831050551 76 309 0.0 0.0 0.00 0.28 0.00 93 1017.0
20260831050053 76 309 0.0 0.0 0.00 0.28 0.00 93 1017.0
20260831045550 76 309 0.0 0.0 0.00 0.28 0.00 93 1017.0
20260831045049 76 309 0.0 0.0 0.00 0.28 0.00 93 1017.1
20260831044554 76 309 0.0 0.0 0.00 0.28 0.00 93 1017.0
20260831044047 76 309 0.0 0.0 0.00 0.28 0.00 93 1017.0
20260831043547 76 309 0.0 0.0 0.00 0.28 0.00 93 1017.0
20260831043045 76 309 0.0 0.0 0.00 0.28 0.00 93 1017.0
20260831042549 76 309 0.0 0.0 0.00 0.28 0.00 93 1017.0
20260831042047 76 309 0.0 0.0 0.00 0.28 0.00 93 1017.0
20260831041548 76 309 0.0 0.0 0.00 0.28 0.00 93 1017.0
20260831041042 76 309 0.0 0.0 0.00 0.28 0.00 93 1017.1
20260831040541 76 309 0.0 0.0 0.00 0.28 0.00 93 1017.1
20260831040040 76 309 0.0 0.0 0.00 0.28 0.00 93 1017.1
20260831035541 76 309 0.0 0.0 0.00 0.28 0.28 93 1017.2
20260831035038 76 309 0.0 0.0 0.00 0.28 0.28 93 1017.2
20260831034546 76 309 0.0 0.0 0.00 0.28 0.28 93 1017.3
20260831034038 77 309 0.0 0.0 0.00 0.28 0.28 93 1017.4
20260831033538 77 309 0.0 0.0 0.00 0.28 0.28 93 1017.4
20260831033038 76 309 0.0 0.0 0.00 0.28 0.28 93 1017.5
20260831032537 77 309 0.0 0.0 0.00 0.28 0.28 93 1017.5
20260831032039 76 309 0.0 0.0 0.00 0.28 0.28 93 1017.5
20260831031536 77 309 0.0 0.0 0.00 0.28 0.28 93 1017.6
20260831031034 76 309 0.0 0.0 0.00 0.28 0.28 93 1017.6
20260831030534 76 309 0.0 0.0 0.00 0.28 0.28 93 1017.6
20260831030033 76 309 0.0 0.0 0.00 0.28 0.28 93 1017.7
20260831025533 76 309 0.0 0.0 0.00 0.28 0.28 93 1017.7
20260831025033 76 309 0.0 0.0 0.00 0.28 0.28 93 1017.7
20260831024535 76 309 0.0 0.0 0.00 0.28 0.28 93 1017.7
20260831024031 76 309 0.0 0.0 0.00 0.28 0.28 93 1017.8
20260831023531 76 309 0.0 0.0 0.00 0.28 0.28 92 1017.9
20260831023029 76 309 0.0 0.0 0.00 0.28 0.28 92 1018.0
20260831022529 76 309 0.0 0.0 0.00 0.28 0.28 92 1017.9
20260831022028 77 309 0.0 0.0 0.00 0.28 0.28 92 1017.8
20260831021530 77 309 0.0 0.0 0.00 0.28 0.28 92 1017.9
20260831021027 77 309 0.0 0.0 0.00 0.28 0.28 92 1017.9
20260831020526 77 309 0.0 0.0 0.00 0.28 0.28 92 1017.9
20260831020026 77 309 0.0 0.0 0.00 0.28 0.28 91 1018.1
20260831015524 77 309 0.0 0.0 0.00 0.28 0.28 91 1018.1
20260831015026 77 309 0.0 0.0 0.00 0.28 0.28 91 1018.0
20260831014528 77 309 0.0 0.0 0.00 0.28 0.28 91 1018.0
20260831014023 77 309 0.0 0.0 0.00 0.28 0.28 91 1018.0
20260831013522 77 309 0.0 0.0 0.00 0.28 0.28 91 1017.9
20260831013022 77 309 0.0 0.0 0.00 0.28 0.28 91 1017.8
20260831012524 77 309 0.0 0.0 0.00 0.28 0.28 90 1017.9
20260831012020 78 309 0.0 0.0 0.00 0.28 0.28 90 1017.9
20260831011533 78 309 0.0 0.0 0.00 0.28 0.28 90 1017.9
20260831011018 78 309 0.0 0.0 0.00 0.28 0.28 90 1017.8
20260831010518 78 309 0.0 0.0 0.00 0.28 0.28 90 1017.8
20260831010016 78 309 0.0 0.0 0.00 0.28 0.28 90 1017.9
20260831005517 78 309 0.0 0.0 0.00 0.28 0.28 90 1017.8
20260831005017 78 309 0.0 0.0 0.00 0.28 0.28 89 1017.8
20260831004516 78 309 0.0 0.0 0.00 0.28 0.28 89 1017.7
20260831004018 78 309 0.0 0.0 0.00 0.28 0.28 89 1017.7
20260831003517 78 314 0.0 0.0 0.00 0.28 0.28 89 1017.5
20260831003014 78 314 0.0 0.0 0.00 0.28 0.28 89 1017.4
20260831002512 78 314 0.0 0.0 0.00 0.28 0.28 88 1017.3
20260831002012 78 314 0.0 0.0 0.00 0.28 0.28 88 1017.4
20260831001511 78 314 0.0 0.0 0.00 0.28 0.28 88 1017.4
20260831001011 79 314 0.0 0.0 0.00 0.28 0.28 88 1017.3
20260831000510 79 314 0.0 0.0 0.00 0.28 0.28 88 1017.1
20260831000011 79 314 0.0 0.0 0.00 0.28 0.28 88 1017.2
20260830235511 79 314 0.0 0.0 0.00 0.28 0.28 87 1017.4
20260830235008 79 314 0.0 0.0 0.00 0.28 0.28 87 1017.3
20260830234508 80 314 0.0 0.0 0.00 0.28 0.28 87 1017.2
20260830234007 80 314 0.0 0.0 0.00 0.28 0.28 87 1017.3
20260830233509 80 313 0.0 0.0 0.00 0.28 0.28 87 1017.3
20260830233006 80 314 0.0 0.0 0.00 0.28 0.28 86 1017.4
20260830232506 80 314 0.0 0.0 0.00 0.28 0.28 86 1017.2
20260830232004 80 314 0.0 0.0 0.00 0.28 0.28 86 1017.2
20260830231504 81 314 0.0 1.0 0.00 0.28 0.28 86 1017.2
20260830231003 81 314 0.0 1.0 0.00 0.28 0.28 85 1017.2
20260830230502 81 359 0.0 1.0 0.00 0.28 0.28 85 1017.2
20260830230002 81 217 0.0 2.0 0.00 0.28 0.28 85 1017.0
20260830225501 82 227 0.0 2.0 0.00 0.28 0.28 85 1017.0
20260830225001 82 306 0.0 1.0 0.00 0.28 0.28 85 1017.0
20260830224601 82 359 0.0 1.0 0.00 0.28 0.28 85 1017.0
20260830224100 82 352 0.0 1.0 0.00 0.28 0.28 85 1017.1
20260830223600 82 299 0.0 3.0 0.00 0.28 0.28 85 1017.1
20260830223112 83 279 0.0 3.0 0.00 0.28 0.28 85 1017.2
20260830222559 83 304 0.0 2.0 0.00 0.28 0.28 85 1016.9
20260830222059 84 304 0.0 4.0 0.00 0.28 0.28 84 1016.9
20260830221557 84 3 0.0 4.0 0.00 0.28 0.28 83 1016.8
20260830221056 85 303 0.0 3.0 0.00 0.28 0.28 84 1016.7
20260830220557 85 332 0.0 3.0 0.00 0.28 0.28 83 1016.6
20260830220056 85 352 0.0 3.0 0.00 0.28 0.28 84 1016.5
20260830215555 85 135 0.0 5.0 0.00 0.28 0.28 84 1016.5
20260830215055 85 207 1.0 5.0 0.00 0.28 0.28 84 1016.5
20260830214612 85 309 1.0 4.0 0.00 0.28 0.28 84 1016.5
20260830214053 85 86 0.0 3.0 0.00 0.28 0.28 85 1016.6
20260830213555 84 216 0.0 3.0 0.00 0.28 0.28 85 1016.5
20260830213053 84 316 0.0 4.0 0.00 0.28 0.28 84 1016.5
20260830212552 84 283 0.0 4.0 0.00 0.28 0.28 84 1016.4
20260830212050 85 90 0.0 3.0 0.00 0.28 0.28 84 1016.5
20260830211550 85 340 0.0 6.0 0.00 0.28 0.28 85 1016.5
20260830211047 84 258 0.0 6.0 0.00 0.28 0.28 85 1016.4
20260830210547 84 85 0.0 4.0 0.00 0.28 0.28 86 1016.6
20260830210046 83 326 0.0 4.0 0.00 0.28 0.28 87 1016.7
20260830205546 82 324 0.0 3.0 0.00 0.28 0.28 89 1016.6
20260830205048 81 129 0.0 4.0 0.00 0.28 0.28 91 1016.7
20260830204554 80 293 0.0 4.0 0.00 0.28 0.28 92 1016.8
20260830204043 79 56 0.0 0.0 0.00 0.28 0.28 92 1016.8
20260830203543 79 56 0.0 1.0 0.00 0.28 0.28 92 1016.9
20260830203041 79 56 0.0 0.0 0.00 0.28 0.28 93 1017.0
20260830202542 78 56 0.0 0.0 0.00 0.28 0.28 93 1016.9
20260830202041 78 56 0.0 1.0 0.00 0.28 0.28 93 1017.1
20260830201540 77 56 0.0 1.0 0.01 0.28 0.28 92 1017.1
20260830201039 76 51 0.0 0.0 0.05 0.28 0.28 92 1017.3
20260830200538 76 59 0.0 2.0 0.06 0.28 0.28 91 1017.3
20260830200046 76 326 0.0 2.0 0.06 0.28 0.28 91 1017.5
20260830195538 76 211 0.0 1.0 0.06 0.28 0.28 91 1017.7
20260830195041 76 228 0.0 2.0 0.06 0.28 0.28 90 1017.8
20260830194537 76 228 0.0 2.0 0.07 0.28 0.28 90 1017.8
20260830194037 77 203 0.0 4.0 0.07 0.28 0.28 90 1017.9
20260830193535 77 113 0.0 4.0 0.08 0.28 0.28 90 1018.0
20260830193035 78 91 0.0 1.0 0.11 0.28 0.28 91 1018.0
20260830192537 78 250 0.0 1.0 0.18 0.28 0.28 91 1018.0
20260830192033 78 211 0.0 2.0 0.27 0.28 0.28 90 1017.9
20260830191534 78 221 0.0 2.0 0.28 0.28 0.28 90 1017.9
20260830191033 79 209 0.0 2.0 0.24 0.24 0.24 89 1017.9
20260830190533 79 312 1.0 3.0 0.23 0.23 0.23 90 1017.8
20260830190043 79 239 0.0 3.0 0.23 0.23 0.23 90 1017.6
20260830185532 79 252 0.0 2.0 0.23 0.23 0.23 90 1017.7
20260830185031 80 242 0.0 2.0 0.23 0.23 0.23 90 1017.7
20260830184530 80 238 0.0 4.0 0.22 0.22 0.22 89 1017.7
20260830184030 81 237 0.0 4.0 0.22 0.22 0.22 87 1017.8
20260830183529 81 137 0.0 2.0 0.21 0.21 0.21 85 1017.8
20260830183029 83 240 0.0 2.0 0.17 0.17 0.17 85 1018.0
20260830182529 86 243 0.0 1.0 0.10 0.10 0.10 83 1017.8
20260830182027 89 68 0.0 3.0 0.01 0.01 0.01 78 1017.8
20260830181527 90 310 0.0 3.0 0.00 0.00 0.00 75 1017.8
20260830181026 91 4 0.0 3.0 0.00 0.00 0.00 71 1017.9
20260830180527 93 146 0.0 5.0 0.00 0.00 0.00 69 1017.9
20260830180028 93 104 0.0 5.0 0.00 0.00 0.00 74 1018.1
20260830175522 92 232 0.0 3.0 0.00 0.00 0.00 74 1018.0
20260830175021 92 313 0.0 3.0 0.00 0.00 0.00 71 1018.1
20260830174521 92 326 0.0 3.0 0.00 0.00 0.00 71 1018.0
20260830174020 91 159 0.0 2.0 0.00 0.00 0.00 71 1018.1
20260830173519 92 297 0.0 2.0 0.00 0.00 0.00 72 1018.2
20260830173019 92 345 0.0 4.0 0.00 0.00 0.00 71 1018.2
20260830172520 92 303 1.0 4.0 0.00 0.00 0.00 69 1018.2
20260830172019 93 261 0.0 2.0 0.00 0.00 0.00 73 1018.2
20260830171514 92 96 0.0 2.0 0.00 0.00 0.00 72 1018.2
20260830171013 91 326 0.0 3.0 0.00 0.00 0.00 73 1018.3
20260830170511 91 274 0.0 6.0 0.00 0.00 0.00 72 1018.3
20260830170010 91 258 1.0 6.0 0.00 0.00 0.00 73 1018.4
20260830165610 91 34 0.0 4.0 0.00 0.00 0.00 70 1018.4
20260830165008 90 265 1.0 4.0 0.00 0.00 0.00 74 1018.4
20260830164507 90 231 1.0 4.0 0.00 0.00 0.00 76 1018.6
20260830164010 89 224 2.0 3.0 0.00 0.00 0.00 75 1018.8
20260830163506 89 302 0.0 2.0 0.00 0.00 0.00 74 1018.9
20260830163005 90 300 0.0 5.0 0.00 0.00 0.00 73 1019.0
20260830162506 91 257 1.0 5.0 0.00 0.00 0.00 73 1018.9
20260830162005 90 249 0.0 1.0 0.00 0.00 0.00 77 1018.8
20260830161504 89 250 0.0 1.0 0.00 0.00 0.00 73 1019.0
20260830161004 90 221 0.0 1.0 0.00 0.00 0.00 71 1019.1
20260830160505 91 113 0.0 1.0 0.00 0.00 0.00 68 1019.1
20260830160001 91 324 0.0 1.0 0.00 0.00 0.00 69 1019.1
20260830155600 91 147 0.0 1.0 0.00 0.00 0.00 71 1019.1
20260830155059 90 281 0.0 2.0 0.00 0.00 0.00 75 1019.2
20260830154559 89 172 0.0 2.0 0.00 0.00 0.00 74 1019.2
20260830154056 89 311 0.0 3.0 0.00 0.00 0.00 73 1019.2
20260830153556 89 313 1.0 3.0 0.00 0.00 0.00 74 1019.3
20260830153054 88 273 0.0 3.0 0.00 0.00 0.00 75 1019.3
20260830152555 88 236 0.0 3.0 0.00 0.00 0.00 77 1019.2
20260830152051 88 229 1.0 3.0 0.00 0.00 0.00 75 1019.1
20260830151550 88 245 0.0 2.0 0.00 0.00 0.00 74 1019.2
20260830151049 88 203 0.0 2.0 0.00 0.00 0.00 74 1019.3
20260830150548 88 224 1.0 2.0 0.00 0.00 0.00 73 1019.2
20260830150046 88 326 0.0 1.0 0.00 0.00 0.00 75 1019.2
20260830145547 87 214 0.0 1.0 0.00 0.00 0.00 78 1019.2
20260830145043 87 163 0.0 3.0 0.00 0.00 0.00 81 1019.2
20260830144541 87 228 0.0 3.0 0.00 0.00 0.00 77 1019.2
20260830144040 87 133 0.0 1.0 0.00 0.00 0.00 81 1019.1
20260830143541 86 229 0.0 1.0 0.00 0.00 0.00 81 1019.1
20260830143039 86 228 0.0 1.0 0.00 0.00 0.00 82 1019.1
20260830142537 85 271 0.0 1.0 0.00 0.00 0.00 83 1019.2
20260830142033 84 233 0.0 1.0 0.00 0.00 0.00 84 1019.2
20260830141531 84 138 0.0 1.0 0.00 0.00 0.00 84 1019.1
20260830141028 83 284 0.0 1.0 0.00 0.00 0.00 85 1019.1
20260830140527 82 173 0.0 2.0 0.00 0.00 0.00 86 1019.1
20260830140026 82 145 0.0 2.0 0.00 0.00 0.00 85 1019.1
20260830135524 81 243 0.0 2.0 0.00 0.00 0.00 86 1019.2
20260830135021 81 153 0.0 2.0 0.00 0.00 0.00 86 1019.1
20260830134529 80 264 0.0 3.0 0.00 0.00 0.00 87 1019.1
20260830134019 80 241 0.0 3.0 0.00 0.00 0.00 87 1019.2
20260830133517 80 123 0.0 2.0 0.00 0.00 0.00 87 1019.1
20260830133015 80 351 0.0 2.0 0.00 0.00 0.00 88 1019.1
20260830132513 79 278 0.0 2.0 0.00 0.00 0.00 89 1019.1
20260830132012 79 314 0.0 2.0 0.00 0.00 0.00 90 1019.1
20260830131509 78 53 0.0 4.0 0.00 0.00 0.00 92 1019.1
20260830131007 78 240 0.0 4.0 0.00 0.00 0.00 94 1019.1
20260830130506 78 302 0.0 2.0 0.00 0.00 0.00 95 1019.1
20260830130005 77 221 0.0 1.0 0.00 0.00 0.00 95 1019.0
20260830125505 77 303 0.0 1.0 0.00 0.00 0.00 95 1019.0
20260830125003 77 111 0.0 1.0 0.00 0.00 0.00 95 1018.9
20260830124502 77 106 0.0 0.0 0.00 0.00 0.00 95 1018.8
20260830124102 77 106 0.0 0.0 0.00 0.00 0.00 95 1018.6
20260830123600 77 106 0.0 0.0 0.00 0.00 0.00 95 1018.6
20260830123058 77 106 0.0 0.0 0.00 0.00 0.00 95 1018.5
20260830122559 76 106 0.0 0.0 0.00 0.00 0.00 95 1018.5
20260830122057 76 106 0.0 0.0 0.00 0.00 0.00 95 1018.5
20260830121556 76 106 0.0 0.0 0.00 0.00 0.00 95 1018.3
20260830121054 76 106 0.0 0.0 0.00 0.00 0.00 95 1018.5
20260830120553 76 106 0.0 1.0 0.00 0.00 0.00 95 1018.5
20260830120056 76 106 0.0 1.0 0.00 0.00 0.00 95 1018.5
20260830115552 76 354 0.0 0.0 0.00 0.00 0.00 95 1018.5
20260830115053 76 355 0.0 1.0 0.00 0.00 0.00 95 1018.5
20260830114551 76 5 0.0 1.0 0.00 0.00 0.00 95 1018.4
20260830114049 75 5 0.0 0.0 0.00 0.00 0.00 95 1018.5
20260830113548 75 5 0.0 0.0 0.00 0.00 0.00 95 1018.4
20260830113047 75 5 0.0 0.0 0.00 0.00 0.00 95 1018.1
20260830112547 75 5 0.0 0.0 0.00 0.00 0.00 95 1018.1
20260830112046 75 4 0.0 0.0 0.00 0.00 0.00 95 1018.0
20260830111546 75 4 0.0 0.0 0.00 0.00 0.00 94 1017.9
20260830111044 75 5 0.0 0.0 0.00 0.00 0.00 94 1017.8
20260830110545 75 5 0.0 0.0 0.00 0.00 0.00 94 1017.6
20260830110044 75 5 0.0 0.0 0.00 0.00 0.00 94 1017.6
20260830105546 75 4 0.0 0.0 0.00 0.00 0.00 94 1017.6
20260830105043 75 5 0.0 0.0 0.00 0.00 0.00 94 1017.6
20260830104601 75 5 0.0 0.0 0.00 0.00 0.00 94 1017.6
20260830104042 75 4 0.0 0.0 0.00 0.00 0.00 94 1017.4
20260830103541 75 4 0.0 0.0 0.00 0.00 0.00 94 1017.4
20260830103041 75 5 0.0 0.0 0.00 0.00 0.00 94 1017.4
20260830102540 75 5 0.0 0.0 0.00 0.00 0.00 94 1017.3
20260830102042 75 4 0.0 0.0 0.00 0.00 0.00 94 1017.2
20260830101539 75 4 0.0 0.0 0.00 0.00 0.00 94 1017.2
20260830101037 75 4 0.0 0.0 0.00 0.00 0.00 94 1017.2
20260830100539 75 4 0.0 0.0 0.00 0.00 0.00 94 1017.2
20260830100035 75 5 0.0 0.0 0.00 0.00 0.00 94 1017.1
20260830095537 75 5 0.0 0.0 0.00 0.00 0.00 94 1017.0
20260830095035 75 4 0.0 0.0 0.00 0.00 0.00 94 1017.1
20260830094535 75 5 0.0 0.0 0.00 0.00 0.00 94 1017.2
20260830094033 75 4 0.0 0.0 0.00 0.00 0.00 94 1017.1
20260830093532 75 5 0.0 0.0 0.00 0.00 0.00 94 1017.2
20260830093040 75 4 0.0 0.0 0.00 0.00 0.00 94 1017.2
20260830092534 75 4 0.0 0.0 0.00 0.00 0.00 94 1017.1
20260830092030 75 5 0.0 0.0 0.00 0.00 0.00 94 1017.1
20260830091530 75 5 0.0 0.0 0.00 0.00 0.00 94 1017.2
20260830091028 75 5 0.0 0.0 0.00 0.00 0.00 94 1017.2
20260830090527 75 5 0.0 0.0 0.00 0.00 0.00 94 1017.2
20260830090028 75 5 0.0 0.0 0.00 0.00 0.00 94 1017.1
20260830085527 75 5 0.0 0.0 0.00 0.00 0.00 94 1017.1
20260830085029 75 5 0.0 0.0 0.00 0.00 0.00 94 1016.9
20260830084525 75 5 0.0 0.0 0.00 0.00 0.00 94 1017.0
20260830084125 75 5 0.0 0.0 0.00 0.00 0.00 94 1017.0
20260830083526 75 4 0.0 0.0 0.00 0.00 0.00 94 1016.9
20260830083035 75 5 0.0 0.0 0.00 0.00 0.00 94 1017.0
20260830082521 76 5 0.0 0.0 0.00 0.00 0.00 94 1017.0
20260830082021 76 5 0.0 0.0 0.00 0.00 0.00 94 1017.2
20260830081520 76 4 0.0 0.0 0.00 0.00 0.00 94 1017.3
20260830081020 76 4 0.0 0.0 0.00 0.00 0.00 94 1017.6
20260830080520 76 4 0.0 0.0 0.00 0.00 0.00 94 1017.7
20260830080019 76 5 0.0 0.0 0.00 0.00 0.00 94 1017.6
20260830075519 76 5 0.0 0.0 0.00 0.00 0.00 94 1017.7
20260830075017 76 5 0.0 0.0 0.00 0.00 0.00 94 1017.8
20260830074517 76 5 0.0 0.0 0.00 0.00 0.00 94 1017.9
20260830074017 76 5 0.0 0.0 0.00 0.00 0.00 94 1017.9
20260830073516 76 5 0.0 0.0 0.00 0.00 0.00 94 1017.9
20260830073015 76 5 0.0 0.0 0.00 0.00 0.00 94 1018.0
20260830072519 76 4 0.0 0.0 0.00 0.00 0.00 94 1018.0
20260830072014 76 5 0.0 0.0 0.00 0.00 0.00 94 1018.1
20260830071518 76 4 0.0 0.0 0.00 0.00 0.00 93 1018.1
20260830071012 76 5 0.0 0.0 0.00 0.00 0.00 93 1018.2
20260830070511 76 5 0.0 0.0 0.00 0.00 0.00 93 1018.3
20260830070011 76 5 0.0 0.0 0.00 0.00 0.00 93 1018.3
20260830065508 76 5 0.0 0.0 0.00 0.00 0.00 93 1018.2
20260830065012 76 4 0.0 0.0 0.00 0.00 0.00 93 1018.3
20260830064509 76 5 0.0 0.0 0.00 0.00 0.00 93 1018.3
20260830064006 76 5 0.0 0.0 0.00 0.00 0.00 93 1018.3
20260830063505 76 5 0.0 0.0 0.00 0.00 0.00 93 1018.2
20260830063003 76 5 0.0 0.0 0.00 0.00 0.00 93 1018.1
20260830062502 76 5 0.0 0.0 0.00 0.00 0.00 93 1017.9
20260830062101 76 5 0.0 0.0 0.00 0.00 0.00 93 1017.7
20260830061600 76 5 0.0 0.0 0.00 0.00 0.00 93 1017.6
20260830061059 76 5 0.0 0.0 0.00 0.00 0.00 93 1017.6
20260830060558 76 5 0.0 0.0 0.00 0.00 0.00 93 1017.5
20260830060057 76 5 0.0 0.0 0.00 0.00 0.00 93 1017.4
20260830055556 76 5 0.0 0.0 0.00 0.00 0.00 93 1017.2
20260830055055 76 4 0.0 0.0 0.00 0.00 0.00 93 1017.2
20260830054554 76 4 0.0 0.0 0.00 0.00 0.00 92 1017.2
20260830054052 76 5 0.0 0.0 0.00 0.00 0.00 92 1017.1